N0TKN Weather Reports


time (UTC)temp
C
wind
direction
speed
KPH
gust
KPH
rain 1hr
cm
rain 24hr
cm
rain mn
cm
humidity
%
barometer
mb
20260504221518 28 188 11.3 20.9 0.00 0.03 0.03 44 1001.4
20260504220516 27 206 9.7 19.3 0.00 0.03 0.03 44 1001.4
20260504215516 27 196 9.7 29.0 0.00 0.03 0.03 45 1001.7
20260504214516 28 201 9.7 22.5 0.00 0.03 0.03 44 1001.4
20260504213515 28 206 9.7 25.7 0.00 0.03 0.03 44 1001.6
20260504212515 28 209 8.0 19.3 0.00 0.03 0.03 44 1001.6
20260504211515 27 209 6.4 16.1 0.00 0.03 0.03 45 1001.6
20260504210515 27 206 8.0 22.5 0.00 0.03 0.03 44 1001.6
20260504205516 27 201 14.5 32.2 0.00 0.03 0.03 45 1001.5
20260504204516 27 196 8.0 17.7 0.00 0.03 0.03 45 1001.6
20260504203516 27 199 11.3 25.7 0.00 0.03 0.03 44 1001.9
20260504202516 27 192 11.3 20.9 0.00 0.03 0.03 44 1002.0
20260504201517 27 200 14.5 25.7 0.00 0.03 0.03 44 1002.0
20260504200517 27 206 9.7 24.1 0.00 0.03 0.03 45 1001.8
20260504195517 27 202 9.7 25.7 0.00 0.03 0.03 45 1002.2
20260504194517 27 201 9.7 20.9 0.00 0.03 0.03 45 1002.2
20260504193517 27 191 9.7 20.9 0.00 0.03 0.03 45 1002.4
20260504192517 27 196 9.7 20.9 0.00 0.03 0.03 44 1002.4
20260504191518 27 196 6.4 16.1 0.00 0.03 0.03 44 1002.7
20260504190517 26 189 9.7 19.3 0.00 0.03 0.03 45 1002.3
20260504185518 26 201 11.3 20.9 0.00 0.03 0.03 45 1002.6
20260504184518 26 201 11.3 32.2 0.00 0.03 0.03 45 1003.2
20260504183518 27 196 11.3 20.9 0.00 0.03 0.03 44 1002.7
20260504182518 27 205 8.0 17.7 0.00 0.03 0.03 45 1002.6
20260504181516 26 202 6.4 12.9 0.00 0.03 0.03 46 1002.4
20260504180516 26 208 6.4 16.1 0.00 0.03 0.03 46 1002.4
20260504175515 25 203 9.7 17.7 0.00 0.03 0.03 46 1002.6
20260504174516 25 195 9.7 20.9 0.00 0.03 0.03 48 1002.4
20260504173516 23 192 4.8 12.9 0.00 0.03 0.03 51 1002.2
20260504172516 23 195 4.8 12.9 0.00 0.03 0.03 52 1003.1
20260504171516 23 186 4.8 12.9 0.00 0.03 0.03 52 1003.4
20260504170517 23 162 1.6 4.8 0.00 0.03 0.03 51 1003.9
20260504150518 20 239 3.2 12.9 0.00 0.03 0.03 72 1003.0
20260504140516 15 118 1.6 4.8 0.03 0.03 0.03 89 1004.5
20260504130517 16 66 1.6 8.0 0.00 0.00 0.00 76 1005.5
20260504110516 13 131 1.6 3.2 0.00 0.00 0.00 81 1006.5
20260504100517 14 89 1.6 4.8 0.00 0.00 0.00 78 1007.2
20260504081515 16 168 1.6 3.2 0.00 0.00 0.00 70 1007.1
20260504080517 16 200 3.2 4.8 0.00 0.00 0.00 69 1007.0
20260504050517 18 176 1.6 4.8 0.00 0.00 0.00 56 1007.7
20260504045517 18 346 1.6 6.4 0.00 0.00 0.00 58 1008.0
20260504044516 19 6 1.6 4.8 0.00 0.00 0.00 56 1008.0
20260504043517 20 171 1.6 8.0 0.00 0.00 0.00 53 1008.0
20260504042517 20 184 3.2 6.4 0.00 0.00 0.00 52 1008.0
20260504041518 20 211 1.6 9.7 0.00 0.00 0.00 51 1008.1
20260504040517 20 199 3.2 9.7 0.00 0.00 0.00 50 1008.0
20260504035518 20 200 3.2 6.4 0.00 0.00 0.00 50 1008.0
20260504034518 21 210 3.2 8.0 0.00 0.00 0.00 49 1008.0
20260504033518 21 199 3.2 8.0 0.00 0.00 0.00 49 1008.2
20260504032515 21 202 3.2 12.9 0.00 0.00 0.00 48 1008.2
20260504031518 21 201 1.6 11.3 0.00 0.00 0.00 47 1008.2
20260504030516 21 199 4.8 11.3 0.00 0.00 0.00 46 1008.1
20260504025516 22 218 3.2 12.9 0.00 0.00 0.00 46 1008.2
20260504024516 22 212 3.2 14.5 0.00 0.00 0.00 46 1008.1
20260504023516 22 192 3.2 8.0 0.00 0.00 0.00 45 1008.0
20260504022516 22 209 3.2 8.0 0.00 0.00 0.00 46 1008.0
20260504021516 22 204 3.2 8.0 0.00 0.00 0.00 46 1008.0
20260504020518 22 209 1.6 6.4 0.00 0.00 0.00 47 1008.0
20260504015516 22 199 3.2 8.0 0.00 0.00 0.00 48 1008.1
20260504014517 22 206 1.6 6.4 0.00 0.00 0.00 48 1008.1
20260504013517 23 229 1.6 8.0 0.00 0.00 0.00 47 1008.0
20260504012517 23 195 0.0 4.8 0.00 0.00 0.00 47 1008.1
20260504011517 23 203 0.0 4.8 0.00 0.00 0.00 47 1008.0
20260504010517 23 220 1.6 6.4 0.00 0.00 0.00 46 1007.9
20260504005517 23 218 1.6 3.2 0.00 0.00 0.00 45 1008.0
20260504004517 24 197 0.0 3.2 0.00 0.00 0.00 45 1008.0
20260504003518 24 222 0.0 3.2 0.00 0.00 0.00 45 1008.2
20260504002518 25 313 0.0 1.6 0.00 0.00 0.00 43 1008.3
20260504001518 25 327 0.0 3.2 0.00 0.00 0.00 42 1008.2
20260504000518 25 313 1.6 6.4 0.00 0.00 0.00 40 1008.2
20260503235515 25 317 1.6 6.4 0.00 0.00 0.00 40 1008.3
20260503234515 25 300 3.2 8.0 0.00 0.00 0.00 39 1008.3
20260503233516 26 293 3.2 8.0 0.00 0.00 0.00 38 1008.2
20260503232516 26 281 3.2 8.0 0.00 0.00 0.00 37 1008.1
20260503231517 26 268 6.4 16.1 0.00 0.00 0.00 36 1008.1
20260503230516 27 282 3.2 8.0 0.00 0.00 0.00 35 1008.2
20260503225517 27 308 4.8 11.3 0.00 0.00 0.00 34 1007.9
20260503224516 27 298 4.8 11.3 0.00 0.00 0.00 33 1008.0
20260503223517 27 284 4.8 14.5 0.00 0.00 0.00 33 1007.9
20260503222517 27 304 6.4 17.7 0.00 0.00 0.00 33 1007.9